STARLINK-1373, 45544

Orbit data source: Space-Track

STARLINK-1373, 45544 is a payload satellite owned by SpaceX/Seattle (US) in LEO that was launched on Wed, 22 Apr 2020 UTC via an FALCON 9 launch vehicle from the Air Force Eastern Test Range (AFETR). Payload-class satellites include a variety of spacecraft equipped with specific instruments for various scientific and technological missions. These include communications satellites like Starlink; space stations such as the ISS; scientific satellites like the Hubble; Earth observation satellites from companies like Planet Labs, Umbra, and HawkEye 360; GPS; miniature CubeSats for education and research; and military/defense satellites.

Not visible in the next 10 days
Identifier
45544, 2020-025P
Orbit
LEO
Country
Flag of USUS
Related business
Manufacturer
SpaceX/Seattle
Mission
Partially operational Commercial Communications
Bus & Motor
STARLINK, Unknown motor
Mass
260 kg wet, ~248 kg dry
Launch date (UTC)
2020-04-22 (6 years ago)
Launch vehicle
FALCON 9
Launch site
Air Force Eastern Test Range (AFETR)
Object type
Payload
Rocket body
Debris
Shape & HBR
Box + 1 Pan, 10.1 m
Radar Cross Section
13.562 m², Large (>1 m²)

Expand to show TLE details & history
Last TLE update: 8 hours ago

TLE from 8 hours ago
0 STARLINK-1373
1 45544U 20025P   26170.57288725  .00053290  00000-0  41666-3 0  9996
2 45544  53.0454 311.3274 0002005  57.6111 302.5100 15.71120418341261
Epoch: 2026-06-19T13:44Z
TLE epoch observation values (Epoch: 2026-06-19T13:44:57.458Z)
Latitude
-0°
Longitude
-162.71194°
Altitude
355.871 km
Speed
7.697 km/s
True Right ascension
20h 45m 18s
True Declination
0° 00' 00"
Sunlit
Object was in full shadow at epoch
Visualization orbit readout
Latitude
Unknown
Longitude
Unknown
Altitude
Unknown
Speed
Unknown
Apparent Right ascension
Unknown
Apparent Declination
Unknown
Sunlit
N/A
Visualization observer readout
Local Sidereal Time
08:09:41
Azimuth
Unknown
Elevation
Unknown
Doppler factor
Unknown
Orbital elements
Apogee altitude
357.324 km
Perigee altitude
354.623 km
Semi-major axis
6,734.11 km
Eccentricity
0.0002
Inclination
53.0454°
RAAN
311.3274°
Arg. of periapsis
57.6111°
True anomaly
302.49062°
Mean anomaly
302.51°
Eccentric anomaly
302.50031°
Mean motion
3.92756 °/min
Orbital period
91.66 mins
BSTAR
0.00041666
Loading maneuver chart data...
Computing Atmospheric mass density...
Loading historical data...
Loading historical data...
Loading historical data...
Loading historical data...
Loading historical data...
Loading historical data...
Loading historical data...

Documentation

Showing up to 5 results
|